Location: Dob?e?
(49.9411°N, 15.1496°E)
Time: 01:20:10
(UTC+00:00)

Daily predictions for brighter satellites

Satellite Brightness Start Highest point End
(mag) Time Altitude Azimuth Time Altitude Azimuth Time Altitude Azimuth
STARLINK-1363 4.0 00:00:08 10° WNW 00:03:10 46° N 00:06:13 10° E
STARLINK-1337 4.0 00:00:31 10° WNW 00:03:33 46° N 00:06:35 10° E
STARLINK-1289 3.7 00:02:33 35° SSW 00:03:36 46° SSE 00:07:14 10° ENE
STARLINK-1342 4.0 00:00:50 10° WNW 00:03:52 46° N 00:06:54 10° E
STARLINK-1364 4.0 00:01:10 10° WNW 00:04:13 46° N 00:07:15 10° E
STARLINK-1376 4.0 00:01:31 10° WNW 00:04:32 46° N 00:07:35 10° E
STARLINK-1268 3.1 00:04:28 44° S 00:04:49 46° SSE 00:07:49 10° ENE
STARLINK-1360 4.0 00:01:51 10° WNW 00:04:53 46° N 00:07:56 10° E
STARLINK-1301 3.7 00:03:56 34° SSW 00:05:13 49° SSE 00:08:58 10° ENE
STARLINK-1361 4.0 00:02:12 10° WNW 00:05:14 46° N 00:08:16 10° E
STARLINK-1367 4.0 00:02:28 10° WNW 00:05:31 47° N 00:08:35 10° E
DELTA 2 DEB (DPAF) 4.3 00:02:35 20° SSE 00:05:38 75° ENE 00:10:07 10° NNW
STARLINK-1366 4.0 00:02:51 10° WNW 00:05:53 46° N 00:08:55 10° E
Cosmos 1400 Rocket 2.9 00:02:30 10° N 00:06:40 77° ENE 00:09:10 23° SSE
STARLINK-1303 3.6 00:05:53 34° SSW 00:07:04 49° SSE 00:10:43 10° ENE
Cosmos 1570 Rocket 4.1 00:04:53 25° SSW 00:08:05 78° WNW 00:13:24 10° NNE
Cosmos 2227 Rocket 3.7 00:04:02 10° NW 00:08:10 21° W 00:10:10 18° SW
STARLINK-66 2.8 00:07:08 37° SW 00:08:12 70° SSE 00:11:24 10° ENE
Cosmos 1709 Rocket 4.0 00:05:05 24° SSW 00:08:59 71° WNW 00:15:13 10° N
Cosmos 1763 Rocket 4.0 00:05:57 20° SW 00:09:19 50° WNW 00:14:16 10° NNE
STARLINK-1316 3.1 00:09:23 43° S 00:09:58 51° SSE 00:13:01 10° ENE
STARLINK-1338 4.3 00:06:06 10° WNW 00:10:01 53° N 00:13:56 10° E
STARLINK-1312 3.6 00:09:13 33° SSW 00:10:33 51° SSE 00:14:12 10° ENE
STARLINK-1257 3.0 00:10:14 43° SSW 00:10:51 52° SSE 00:13:55 10° ENE
STARLINK-1256 3.0 00:11:11 42° SSW 00:11:49 52° SSE 00:14:53 10° ENE
STARLINK-58 3.4 00:11:42 37° S 00:12:08 40° SSE 00:15:09 10° ENE
STARLINK-1213 3.0 00:12:02 42° SSW 00:12:42 53° SSE 00:15:46 10° ENE
Cosmos 2084 Rocket 4.1 00:09:02 10° NW 00:13:11 39° SW 00:14:58 27° S
STARLINK-52 3.2 00:10:01 10° WNW 00:13:14 69° NNE 00:16:27 10° ESE
STARLINK-1263 3.0 00:12:53 42° SSW 00:13:35 54° SSE 00:16:39 10° ENE
Meteor 1-27 4.5 00:08:28 10° N 00:14:02 67° ENE 00:19:01 13° SSE
STARLINK-1259 3.0 00:13:47 41° SSW 00:14:32 55° SSE 00:17:36 10° ENE
Cosmos 2227 4.2 00:09:03 10° NNW 00:14:51 88° ENE 00:20:38 10° SSE
STARLINK-1265 3.0 00:14:10 41° SSW 00:14:56 55° SSE 00:18:02 10° ENE
STARLINK-1285 3.0 00:14:37 41° SSW 00:15:24 56° SSE 00:18:28 10° ENE
Cosmos 2298 Rocket 4.0 00:10:27 10° NNW 00:15:46 77° WSW 00:19:50 17° SSE
SL-16 R/B 2.7 00:10:23 10° SSE 00:16:28 72° ENE 00:22:39 10° NNW
STARLINK-1296 2.9 00:16:22 40° SSW 00:17:12 57° SSE 00:20:17 10° ENE
Cosmos 1758 Rocket 3.9 00:15:28 25° SW 00:17:47 54° WNW 00:22:09 10° N
STARLINK-1260 2.9 00:17:14 39° SSW 00:18:06 58° SSE 00:21:11 10° ENE
STARLINK-1371 4.3 00:14:29 10° WNW 00:18:22 54° N 00:22:16 10° E
GEOS 3 Rocket 4.2 00:13:20 10° ESE 00:18:28 60° NE 00:23:41 10° NW
STARLINK-1318 2.9 00:18:06 39° SSW 00:19:00 59° SSE 00:22:06 10° ENE
STARLINK-75 2.8 00:18:02 31° SW 00:19:25 75° SSE 00:22:40 10° ENE
STARLINK-1275 2.9 00:18:59 38° SW 00:19:55 60° SSE 00:23:01 10° ENE
STARLINK-48 4.2 00:19:05 28° S 00:20:17 36° SE 00:23:52 10° ENE
STARLINK-1309 2.9 00:19:50 37° SW 00:20:48 61° SSE 00:23:53 10° ENE
STARLINK-1282 2.8 00:20:42 37° SW 00:21:42 61° SSE 00:24:47 10° ENE
IRAS Rocket 4.3 00:18:06 21° S 00:21:46 61° WSW 00:27:16 10° NNW
STARLINK-1283 3.6 00:20:03 25° SW 00:22:20 65° SSE 00:26:27 10° ENE
STARLINK-1341 4.3 00:18:51 10° WNW 00:22:47 54° N 00:26:42 10° E
STARLINK-1313 2.8 00:21:38 34° SW 00:22:48 69° SSE 00:25:55 10° ENE
STARLINK-80 3.4 00:21:07 27° SW 00:23:00 63° SSE 00:26:46 10° ENE
STARLINK-1279 2.8 00:22:33 34° SW 00:23:44 70° SSE 00:26:50 10° ENE
STARLINK-1298 2.8 00:23:16 35° SW 00:24:21 64° SSE 00:27:27 10° ENE
STARLINK-1293 2.8 00:24:10 34° SW 00:25:18 65° SSE 00:28:24 10° ENE
SL-16 R/B 3.3 00:22:44 16° SSE 00:26:41 36° ESE 00:31:48 10° NE
STARLINK-1255 2.8 00:25:54 33° SW 00:27:06 67° SSE 00:30:13 10° ENE
Cosmos 2208 Rocket 4.2 00:23:37 22° SW 00:27:06 67° WNW 00:32:30 10° NNE
STARLINK-1374 4.3 00:23:13 10° WNW 00:27:09 55° N 00:31:06 10° E
STARLINK-22 2.8 00:26:16 30° SW 00:27:41 72° SSE 00:30:53 10° ENE
STARLINK-1297 3.2 00:26:32 27° SW 00:28:17 63° SSE 00:31:52 10° ENE
STARLINK 1040 3.3 00:26:21 15° W 00:28:18 47° NNW 00:30:48 10° ENE
STARLINK-1311 2.6 00:28:28 32° WSW 00:29:40 78° SSE 00:32:37 10° ENE
CZ-2D R/B 2.5 00:25:59 10° NNE 00:31:07 55° E 00:35:02 17° S
STARLINK-1339 4.2 00:27:29 10° WNW 00:31:24 55° N 00:35:20 10° E
Cosmos-2242 3.8 00:28:32 10° NNW 00:32:25 35° W 00:34:23 23° SW
MOZ.5/SAFIR/RUBIN 5/SL-8 3.7 00:29:15 19° S 00:32:33 76° WSW 00:37:14 10° NNW
USA 215 3.8 00:28:06 12° SSE 00:33:34 36° SW 00:39:31 10° WNW
Cosmos 2221 3.0 00:31:02 10° N 00:35:23 60° ENE 00:39:28 11° SSE
STARLINK-1377 4.2 00:31:54 10° WNW 00:35:52 56° N 00:39:48 10° E
Cosmos 1953 Rocket 3.7 00:33:32 24° SSW 00:36:07 62° WNW 00:40:29 10° N
BREEZE-M R/B 2.7 00:33:00 10° W 00:38:24 89° S 00:41:21 10° E
STARLINK-42 2.8 00:36:26 20° WSW 00:38:26 83° NNW 00:41:35 10° ENE
GP-B 3.1 00:35:37 10° N 00:40:04 74° W 00:42:59 21° SSW
STARLINK-1353 4.2 00:36:14 10° WNW 00:40:12 57° N 00:44:10 10° E
STARLINK-1029 3.1 00:39:05 31° SSW 00:40:16 51° SSE 00:43:22 10° ENE
STARLINK-60 3.1 00:38:06 10° WNW 00:41:11 46° SSW 00:44:15 10° SE
STARLINK-34 2.8 00:40:02 29° SW 00:41:23 65° SSE 00:44:26 10° ENE
FALCON 9 DEB 3.3 00:38:11 10° WNW 00:41:39 73° NNE 00:45:06 10° ESE
CZ-4C R/B 3.6 00:38:35 19° S 00:41:44 71° WSW 00:46:12 10° NNW
STARLINK-41 2.8 00:40:10 20° WSW 00:42:10 81° NNW 00:45:14 10° ENE
Cosmos 1315 Rocket 3.0 00:38:18 10° N 00:42:14 69° ENE 00:45:45 13° SSE
Cosmos 1842 Rocket 3.6 00:37:51 10° N 00:42:21 84° ENE 00:46:04 15° SSE
STARLINK-1272 3.1 00:42:01 20° WSW 00:44:20 80° SSE 00:47:53 10° ENE
STARLINK-1375 4.2 00:40:37 10° WNW 00:44:35 58° N 00:48:33 10° E
Cosmos 540 Rocket 4.0 00:41:07 17° SW 00:44:49 49° WNW 00:49:48 10° NNE
STARLINK-62 2.7 00:43:45 27° SW 00:45:14 68° SSE 00:48:17 10° ENE
Helios 1B rocket 4.2 00:44:21 10° NNW 00:47:33 22° WNW 00:50:24 12° WSW
STARLINK-1350 4.1 00:44:57 10° WNW 00:48:55 59° N 00:52:55 10° E
Cosmos 2360 Rocket 3.9 00:44:37 10° SSE 00:49:03 25° ESE 00:53:32 10° NE
STARLINK-1307 3.2 00:46:48 18° WSW 00:49:29 83° SSE 00:53:13 10° ENE
STARLINK-1290 3.2 00:50:11 17° WSW 00:53:00 86° SSE 00:56:45 10° ENE
STARLINK-1352 4.1 00:49:12 10° WNW 00:53:11 61° N 00:57:09 10° E
Cosmos 2058 3.9 00:50:48 12° SSE 00:54:28 44° E 00:58:29 10° NNE
STARLINK-1276 4.5 00:52:19 21° SSW 00:54:28 35° SE 00:58:17 10° ENE
Shenzhou-11 Module 3.9 00:56:40 12° SE 00:56:40 12° SE 00:57:03 10° SE
Cosmos 2074 Rocket 4.0 00:51:22 17° SSW 00:56:20 76° W 01:02:39 10° N
Cosmos 1980 Rocket 2.7 00:51:50 15° SW 00:56:21 53° NW 01:01:55 10° NNE
STARLINK-1368 4.1 00:53:48 10° WNW 00:57:47 62° N 01:01:48 10° E
Cosmos 1455 4.4 00:57:28 10° WNW 00:58:45 11° W 01:00:03 10° WSW
STARLINK-1305 4.4 00:57:04 20° SSW 00:59:24 38° SE 01:03:15 10° ENE
STARLINK-1306 4.3 00:57:24 20° SSW 00:59:51 40° SE 01:03:48 10° ENE
STARLINK-1317 3.5 00:56:33 13° WSW 01:00:00 86° NNW 01:03:56 10° ENE
CZ-4B R/B 3.8 00:54:45 10° NNE 01:00:00 70° ESE 01:04:34 14° S
STARLINK-1369 4.0 00:58:14 10° WNW 01:02:14 64° NNE 01:06:15 10° E
STARLINK-55 3.4 01:00:42 10° W 01:03:53 60° NNW 01:07:04 10° ENE
STARLINK-1274 3.2 01:00:55 13° WSW 01:04:00 82° NNW 01:07:34 10° ENE
STARLINK-1262 4.3 01:01:53 19° SSW 01:04:24 40° SE 01:08:18 10° ENE
STARLINK-43 4.0 01:01:43 10° W 01:05:20 54° N 01:08:58 10° ENE
STARLINK-1372 4.0 01:02:28 10° WNW 01:06:29 65° NNE 01:10:28 10° E
STARLINK-1291 3.4 01:04:15 12° WSW 01:07:43 81° NNW 01:11:28 10° ENE
ADEOS II 2.8 01:04:05 10° NNE 01:09:12 48° E 01:14:16 10° S
STARLINK-1300 4.2 01:06:39 18° SSW 01:09:21 43° SE 01:13:17 10° ENE
Cosmos 2263 Rocket 2.6 01:05:29 10° NW 01:10:45 43° WSW 01:15:58 10° S
STARLINK-1264 3.4 01:07:26 11° WSW 01:11:02 79° NNW 01:14:48 10° ENE
STARLINK-1378 3.9 01:07:06 10° WNW 01:11:07 67° NNE 01:15:08 10° E
IRS-1D 3.9 01:07:14 10° NNE 01:12:30 64° ESE 01:17:31 11° S
STARLINK-29 3.1 01:10:52 10° WNW 01:13:59 48° SSW 01:17:03 10° SE
AQUA 3.8 01:09:27 10° NNE 01:14:14 90° ESE 01:18:24 14° SSW
STARLINK-1295 4.1 01:11:25 17° SW 01:14:17 46° SSE 01:18:16 10° ENE
STARLINK-1267 3.5 01:10:40 10° WSW 01:14:24 76° NNW 01:18:09 10° ENE
NOSS 2-1 (C) 3.0 01:12:04 19° SSW 01:14:25 73° SE 01:18:07 10° NE
UNK 4.3 01:11:40 15° SSW 01:15:05 41° W 01:19:26 10° NNW
STARLINK-28 3.6 01:12:17 10° W 01:15:27 54° N 01:18:36 10° ENE
SL-4 R/B 2.8 01:11:03 10° WNW 01:15:31 38° SW 01:19:50 10° SSE
STARLINK-1379 3.9 01:11:36 10° WNW 01:15:37 69° NNE 01:19:39 10° E
USA 229 DEB 4.1 01:09:50 10° NW 01:16:48 51° WSW 01:24:05 10° SSE
USA 229 4.1 01:09:56 10° NW 01:16:55 51° WSW 01:24:12 10° SSE
STARLINK-64 3.2 01:14:12 16° SW 01:16:56 67° SSE 01:20:30 10° ENE
NOSS 3-1 (C) 4.3 01:10:30 10° NW 01:17:41 49° WSW 01:25:50 10° SSE
NPP 3.7 01:12:44 10° NNE 01:18:09 74° WNW 01:22:54 13° SSW
ARIANE 5 R/B 3.8 01:14:16 10° NNE 01:18:53 35° E 01:23:27 10° SSE
STARLINK-1287 4.0 01:16:12 16° SW 01:19:15 49° SSE 01:23:16 10° ENE
NOSS 2-1 (D) 2.9 01:16:50 17° SW 01:19:19 82° SE 01:23:03 10° NE
STARLINK-1329 3.8 01:15:24 10° WNW 01:19:26 71° NNE 01:23:28 10° ESE
STARLINK-1207 3.6 01:17:27 10° WSW 01:21:11 72° NNW 01:24:57 10° ENE
Cosmos 2184 Rocket 4.3 01:16:26 14° SSW 01:21:35 53° WNW 01:27:38 10° N
ERS-2 3.8 01:19:22 10° SE 01:22:43 35° ENE 01:26:06 10° N
STARLINK-1362 3.8 01:19:55 10° WNW 01:23:59 74° NNE 01:28:01 10° ESE
CZ-4C R/B 3.9 01:19:08 10° W 01:24:07 33° NNW 01:30:01 10° NE
STARLINK-1266 3.6 01:20:51 10° W 01:24:35 70° NNW 01:28:20 10° ENE
BREEZE-M DEB (TANK) 1.9 01:23:14 17° WSW 01:24:39 60° SSE 01:28:03 10° E
Cosmos 1892 2.7 01:21:53 13° S 01:25:15 87° E 01:29:04 10° N
STARLINK-33 3.6 01:22:35 10° W 01:25:39 52° N 01:28:42 10° ENE
NOSS 3-1 (A) 4.1 01:18:35 10° NW 01:25:57 61° SW 01:34:24 10° SSE
STARLINK-1299 3.8 01:24:06 14° SW 01:27:42 63° SSE 01:31:55 10° ENE
STARLINK-1284 3.6 01:24:15 10° W 01:27:59 68° NNW 01:31:45 10° ENE
STARLINK-1373 3.7 01:24:27 10° WNW 01:28:30 76° NNE 01:32:32 10° ESE
STARLINK-1320 2.8 01:25:33 10° WNW 01:28:40 89° N 01:31:48 10° ESE
STARLINK-1322 2.8 01:25:54 10° WNW 01:29:02 89° NNE 01:32:09 10° ESE
BREEZE-M DEB (TANK) 1.0 01:26:47 10° W 01:29:05 69° SSW 01:31:54 10° ESE
STARLINK-26 3.9 01:25:45 10° W 01:29:09 54° N 01:32:32 10° ENE
STARLINK-1302 3.8 01:25:46 14° SW 01:29:10 56° SSE 01:33:14 10° ENE
STARLINK-1324 2.8 01:26:13 10° WNW 01:29:21 90° NNE 01:32:28 10° ESE
STARLINK-1294 2.8 01:26:31 10° WNW 01:29:39 90° W 01:32:49 10° ESE
Cosmos 1869 3.8 01:26:11 10° NNW 01:29:48 39° W 01:33:01 12° SSW
STARLINK-1261 2.8 01:26:54 10° WNW 01:30:03 89° S 01:33:10 10° ESE
STARLINK-1325 2.8 01:27:15 10° WNW 01:30:23 89° SSW 01:33:31 10° ESE
STARLINK-1333 2.8 01:27:37 10° WNW 01:30:45 89° SSW 01:33:53 10° ESE
STARLINK-1334 2.8 01:27:54 10° WNW 01:31:02 89° SSW 01:34:09 10° ESE
STARLINK-1326 2.8 01:28:14 10° WNW 01:31:22 88° SSW 01:34:29 10° ESE
STARLINK-1258 3.7 01:27:42 10° W 01:31:26 66° NNW 01:35:11 10° ENE
STARLINK-1323 2.8 01:28:37 10° WNW 01:31:44 88° SW 01:34:52 10° ESE
STARLINK-1349 2.8 01:28:55 10° WNW 01:32:02 88° SSW 01:35:10 10° ESE
STARLINK-1336 2.8 01:29:14 10° WNW 01:32:22 87° SSW 01:35:30 10° ESE
STARLINK-1331 2.8 01:29:37 10° WNW 01:32:45 87° SSW 01:35:52 10° ESE
STARLINK-1344 2.8 01:29:55 10° WNW 01:33:03 86° SSW 01:36:10 10° ESE
STARLINK-1390 3.7 01:29:03 10° WNW 01:33:07 79° NNE 01:37:10 10° ESE
STARLINK-1343 2.8 01:30:18 10° WNW 01:33:26 86° SSW 01:36:34 10° ESE
STARLINK-1346 2.8 01:30:34 10° WNW 01:33:44 86° SSW 01:36:53 10° ESE
STARLINK-1273 3.8 01:30:32 13° SW 01:34:07 60° SSE 01:38:13 10° ENE
STARLINK-1328 2.8 01:31:01 10° WNW 01:34:09 85° SSW 01:37:16 10° ESE
STARLINK-1354 2.8 01:31:18 10° WNW 01:34:26 85° SSW 01:37:34 10° ESE
STARLINK-1347 2.8 01:31:35 10° WNW 01:34:43 85° SSW 01:37:51 10° ESE
Cosmos 2322 Rocket 2.2 01:29:42 12° SSW 01:34:53 90° WNW 01:40:33 10° NNE
STARLINK-1292 3.7 01:31:09 10° W 01:34:53 65° NNW 01:38:38 10° ENE
STARLINK-1357 2.8 01:32:01 10° WNW 01:35:09 84° SSW 01:38:17 10° ESE
STARLINK-1335 2.8 01:32:18 10° WNW 01:35:26 84° SSW 01:38:34 10° ESE
STARLINK-1327 2.8 01:32:40 10° WNW 01:35:47 84° SSW 01:38:55 10° ESE
STARLINK-1340 2.8 01:32:58 10° WNW 01:36:05 83° SSW 01:39:12 10° ESE
STARLINK-1356 2.8 01:33:20 10° WNW 01:36:28 83° SSW 01:39:35 10° ESE
In-Cosmos 22 Rocket 4.2 01:31:02 11° SSW 01:36:30 78° WNW 01:41:59 10° N
STARLINK-1345 2.8 01:33:39 10° WNW 01:36:46 82° SSW 01:39:54 10° ESE
STARLINK-1355 2.8 01:34:01 10° WNW 01:37:08 82° SSW 01:40:15 10° ESE
STARLINK-1321 2.8 01:34:21 10° WNW 01:37:29 82° SSW 01:40:37 10° ESE
STARLINK-1358 2.8 01:34:44 10° WNW 01:37:52 81° SSW 01:40:59 10° ESE
STARLINK-1332 2.8 01:35:01 10° WNW 01:38:09 81° SSW 01:41:16 10° ESE
STARLINK-1348 2.8 01:35:22 10° WNW 01:38:30 81° SSW 01:41:37 10° ESE
STARLINK-1330 2.8 01:35:41 10° WNW 01:38:49 80° SSW 01:41:56 10° ESE
STARLINK-1288 3.7 01:35:19 12° SW 01:39:05 64° SSE 01:43:12 10° ENE
STARLINK-1365 3.6 01:35:01 10° WNW 01:39:07 84° NNE 01:43:12 10° ESE
STARLINK-1363 2.8 01:36:01 10° WNW 01:39:10 80° SSW 01:42:16 10° ESE
STARLINK-61 3.8 01:35:51 13° SW 01:39:12 51° SSE 01:43:01 10° ENE
STARLINK-1337 2.8 01:36:24 10° WNW 01:39:32 80° SSW 01:42:39 10° ESE
STARLINK-1342 2.7 01:36:43 10° WNW 01:39:51 79° SSW 01:42:58 10° ESE
Resurs 1-4 Rocket 2.8 01:34:57 10° N 01:39:58 43° WNW 01:44:54 10° SW
STARLINK-1364 2.7 01:37:03 10° WNW 01:40:11 79° SSW 01:43:19 10° ESE
STARLINK-1376 2.7 01:37:24 10° WNW 01:40:31 79° SSW 01:43:38 10° ESE
STARLINK-1268 3.6 01:37:30 10° W 01:40:32 53° NNW 01:43:36 10° ENE
STARLINK-1360 2.8 01:37:44 10° WNW 01:40:52 78° SSW 01:44:00 10° ESE
STARLINK-1361 2.7 01:38:05 10° WNW 01:41:12 78° SSW 01:44:19 10° ESE
STARLINK-1367 2.8 01:38:20 10° WNW 01:41:30 77° SSW 01:44:39 10° ESE
STARLINK-1289 3.8 01:38:01 10° W 01:41:46 62° NNW 01:45:30 10° ENE
STARLINK-1366 2.7 01:38:44 10° WNW 01:41:52 77° SSW 01:44:58 10° ESE
STARLINK-1301 3.9 01:39:55 10° W 01:43:45 61° NNW 01:47:34 10° ENE
Cosmos 1076 Rocket 3.7 01:39:51 11° SSW 01:44:05 63° WNW 01:48:26 10° N
STARLINK-1308 3.7 01:40:08 11° SW 01:44:06 69° SSE 01:48:14 10° ENE
STARLINK-66 3.9 01:41:20 10° W 01:44:27 48° N 01:47:35 10° ENE
STARLINK-1303 3.9 01:41:31 10° W 01:45:15 61° NNW 01:48:59 10° ENE
Cosmos 2151 3.5 01:41:35 10° S 01:45:48 61° E 01:50:04 10° NNE
STARLINK-1316 3.6 01:42:45 10° W 01:45:49 52° N 01:48:53 10° ENE
COBE Rocket 4.1 01:41:09 10° SSE 01:46:15 87° ENE 01:51:28 10° NNW
STARLINK-1257 3.7 01:43:38 10° W 01:46:42 52° N 01:49:47 10° ENE
H-2A R/B 2.9 01:43:09 10° SSE 01:47:31 58° ENE 01:51:58 10° N
STARLINK-1256 3.7 01:44:38 10° W 01:47:41 51° N 01:50:45 10° ENE
STARLINK-58 3.5 01:44:57 10° W 01:48:06 58° NNW 01:51:15 10° ENE
STARLINK-1213 3.7 01:45:30 10° W 01:48:34 51° N 01:51:38 10° ENE
STARLINK-1312 3.9 01:45:01 10° W 01:48:45 60° NNW 01:52:29 10° ENE
STARLINK-52 3.7 01:46:20 10° W 01:49:12 30° SW 01:52:03 10° SSE
STARLINK-1338 3.5 01:45:14 10° WNW 01:49:14 89° SSW 01:53:14 10° ESE
STARLINK-1263 3.7 01:46:24 10° W 01:49:27 51° N 01:52:31 10° ENE
STARLINK-1259 3.7 01:47:20 10° W 01:50:24 50° N 01:53:27 10° ENE
STARLINK-1265 3.7 01:47:43 10° W 01:50:48 51° N 01:53:54 10° ENE
Okean 3 Rocket 4.3 01:46:22 10° S 01:50:49 57° E 01:55:18 10° NNE
STARLINK-1285 3.7 01:48:13 10° W 01:51:16 50° N 01:54:21 10° ENE
STARLINK-1296 3.7 01:50:03 10° W 01:53:06 50° N 01:56:10 10° ENE
STARLINK-57 4.5 01:49:58 10° SSW 01:53:10 30° SE 01:56:24 10° E
Cosmos 1408 2.6 01:49:48 10° SSW 01:53:29 73° W 01:57:10 10° N
STARLINK-1260 3.7 01:50:56 10° W 01:54:00 50° N 01:57:04 10° ENE
STARLINK-1304 3.6 01:49:53 10° WSW 01:54:02 76° SSE 01:58:11 10° ENE
STARLINK-1318 3.7 01:51:51 10° W 01:54:54 49° N 01:57:58 10° ENE
STARLINK-75 3.9 01:52:33 10° W 01:55:42 48° N 01:58:51 10° ENE
STARLINK-1275 3.8 01:52:46 10° W 01:55:49 49° N 01:58:52 10° ENE
STARLINK-27 4.5 01:53:08 10° SSW 01:56:21 31° SE 01:59:35 10° E
STARLINK-1309 3.8 01:53:39 10° W 01:56:42 49° N 01:59:45 10° ENE
GEOS 3 Rocket 4.2 01:52:00 10° S 01:56:42 35° WSW 02:01:31 10° NW
STARLINK-1371 3.4 01:53:30 10° WNW 01:57:29 82° SSW 02:01:26 10° ESE
STARLINK-1282 3.8 01:54:33 10° W 01:57:36 49° N 02:00:39 10° ENE
STARLINK-74 4.4 01:54:43 10° SSW 01:57:58 31° SE 02:01:13 10° E
STARLINK-48 3.7 01:54:50 10° WSW 01:58:44 72° NNW 02:02:38 10° ENE
STARLINK-1313 3.8 01:55:41 10° W 01:58:44 47° N 02:01:47 10° ENE
STARLINK-39 4.4 01:56:20 10° SSW 01:59:35 32° SE 02:02:52 10° E
STARLINK-1279 3.8 01:56:38 10° W 01:59:40 47° N 02:02:43 10° ENE
Cosmos 1825 2.2 01:56:18 10° S 02:00:03 88° E 02:03:51 10° N
STARLINK-1278 3.7 01:55:56 10° WSW 02:00:12 87° SSE 02:04:30 10° ENE
STARLINK-1298 3.8 01:57:14 10° W 02:00:16 48° N 02:03:19 10° ENE
Cosmos 1339 Rocket 4.5 01:54:23 10° NNW 02:00:31 81° W 02:06:42 10° S
SL-16 R/B 3.7 01:55:52 10° SW 02:00:40 23° W 02:05:31 10° NW
Cosmos 2237 4.3 01:55:01 10° SSW 02:00:44 82° ESE 02:06:30 10° NNE
STARLINK-1293 3.8 01:58:09 10° W 02:01:13 48° N 02:04:16 10° ENE
STARLINK-31 4.3 01:57:57 10° SSW 02:01:14 33° SE 02:04:33 10° ENE
STARLINK-80 4.1 01:57:35 10° W 02:01:20 56° N 02:05:06 10° ENE
STARLINK-1341 3.4 01:57:53 10° WNW 02:01:52 79° SSW 02:05:50 10° ESE
STARLINK-1283 4.2 01:57:54 10° W 02:01:59 58° N 02:06:04 10° ENE
STARLINK-1280 3.7 01:57:47 10° WSW 02:02:03 89° SSE 02:06:20 10° ENE
SL-08 R/B 3.4 01:57:34 10° S 02:02:07 56° W 02:06:39 10° NNW
STARLINK 1040 3.7 02:00:02 10° WNW 02:02:30 42° N 02:04:58 10° E
STARLINK-69 4.2 01:59:32 10° SSW 02:02:52 36° SE 02:06:12 10° ENE
STARLINK-1255 3.8 01:59:58 10° W 02:03:02 48° N 02:06:05 10° ENE
IRS-P3 4.2 01:58:13 10° NNE 02:03:34 72° WNW 02:08:51 10° SSW
STARLINK-22 3.9 02:00:48 10° W 02:03:55 48° N 02:07:04 10° ENE
STARLINK-21 4.2 02:01:11 10° SSW 02:04:31 35° SE 02:07:51 10° ENE
STARLINK-1311 3.9 02:02:12 10° W 02:05:04 44° N 02:07:56 10° ENE
Cosmos 1844 Rocket 2.7 01:59:52 10° NNW 02:05:27 69° WSW 02:10:58 10° SSE
STARLINK-1297 4.0 02:02:27 10° W 02:06:00 54° N 02:09:34 10° ENE
STARLINK-45 4.1 02:02:52 10° SW 02:06:16 39° SE 02:09:41 10° ENE
STARLINK-1374 3.5 02:02:21 10° WNW 02:06:21 75° SSW 02:10:21 10° ESE
NOSS 2-1 (E) 3.9 02:05:35 10° WSW 02:08:53 43° NW 02:12:40 10° NE
STARLINK-76 4.1 02:06:00 10° SW 02:09:22 38° SE 02:12:46 10° ENE
STARLINK-70 4.1 02:06:22 10° SW 02:09:49 40° SE 02:13:17 10° ENE
STARLINK-1339 3.4 02:06:31 10° WNW 02:10:29 72° SSW 02:14:25 10° ESE
SL-16 R/B 2.8 02:05:13 10° SW 02:10:40 47° NW 02:16:10 10° NNE
STARLINK-1286 3.7 02:06:30 10° WSW 02:10:41 89° N 02:14:53 10° ENE
CZ-2D R/B 3.4 02:06:36 10° N 02:10:53 27° WNW 02:15:09 10° WSW
